Weather History for 94866 - June, 2013

Change the Weather History Date:

Friday, June 21, 2013

  Actual Average Record
Temperature  
Mean Temperature 45 °F -  
Max Temperature 56 °F 54 °F - ()
Min Temperature 34 °F 41 °F - ()
Degree Days  
Heating Degree Days 20    
Moisture  
Dew Point 36 °F    
Average Humidity 75    
Maximum Humidity 93    
Minimum Humidity 40    
Precipitation  
Precipitation 0.00 in 0.05 in - ()
Sea Level Pressure  
Sea Level Pressure 30.14 in    
Wind  
Wind Speed 9 mph ()    
Max Wind Speed 13 mph    
Max Gust Speed -    
Visibility 6.2 miles    
Events      
T = Trace of Precipitation, MM = Missing Value Source: Averaged Metar Reports

Daily Weather History Graph

Daily Weather History Graph

Search for Another Location

Airport or City:

Trip Planner

Search our weather history database for the weather conditions in past years. The results will help you decide how hot, cold, wet, or windy it might be!

Date:

Astronomy

Jun. 21, 2013 Rise Set
Actual Time 7:35 AM AEST 5:09 PM AEST
Civil Twilight 7:06 AM AEST 5:38 PM AEST
Nautical Twilight 6:33 AM AEST 6:11 PM AEST
Astronomical Twilight 6:01 AM AEST 6:43 PM AEST
Moon 3:07 PM AEST (6/21) 4:37 AM AEST (6/21)
Length of Visible Light 10h 32m
Length of Day
9h 33m
Waxing Gibbous, 92% of the Moon is Illuminated
Jun 21
Waxing Gibbous
Jun 23
Full
Jun 30
Last Quarter
Jul 8
New
Jul 16
First Quarter

Hourly Weather History & Observations

Time (AEST) Temp. Windchill Dew Point Humidity Pressure Visibility Wind Dir Wind Speed Gust Speed Precip Events Conditions
12:00 AM 40 °F - 35 °F 77% 30.17 in 25 mi North 12.7 mph - -   Partly Cloudy
12:00 AM 41.0 °F 33.9 °F 35.6 °F 81% 30.15 in - North 12.7 mph - N/A   Clear
12:30 AM 37.4 °F 29.3 °F 35.6 °F 93% 30.15 in - North 12.7 mph - N/A   Clear
1:00 AM 36 °F - 34 °F 89% 30.16 in - North 8.1 mph - -  
1:00 AM 35.6 °F 29.2 °F 33.8 °F 93% 30.15 in - North 8.1 mph - N/A   Clear
1:30 AM 39.2 °F 32.5 °F 33.8 °F 81% 30.15 in - North 10.4 mph - N/A   Clear
2:00 AM 35.6 °F 29.2 °F 33.8 °F 93% 30.15 in - North 8.1 mph - N/A   Clear
2:30 AM 35.6 °F 31.7 °F 33.8 °F 93% 30.15 in - North 4.6 mph - N/A   Clear
3:00 AM 37 °F - 34 °F 86% 30.15 in 25 mi NNE 6.9 mph - -   Partly Cloudy
3:00 AM 37.4 °F 32.1 °F 33.8 °F 87% 30.12 in - NNE 6.9 mph - N/A   Clear
3:30 AM 35.6 °F 29.2 °F 33.8 °F 93% 30.12 in - North 8.1 mph - N/A   Clear
4:00 AM 36 °F - 33 °F 86% 30.14 in - North 9.2 mph - -  
4:00 AM 35.6 °F 28.6 °F 33.8 °F 93% 30.12 in - North 9.2 mph - N/A   Clear
4:30 AM 35.6 °F 29.2 °F 33.8 °F 93% 30.12 in - North 8.1 mph - N/A   Clear
5:00 AM 37.4 °F 32.8 °F 32.0 °F 81% 30.12 in - North 5.8 mph - N/A   Clear
5:30 AM 35.6 °F 30.7 °F 33.8 °F 93% 30.12 in - North 5.8 mph - N/A   Clear
6:00 AM 36 °F - 34 °F 89% 30.15 in 25 mi North 8.1 mph - -   Partly Cloudy
6:00 AM 35.6 °F 29.2 °F 33.8 °F 93% 30.12 in - North 8.1 mph - N/A   Clear
6:30 AM 35.6 °F 27.1 °F 33.8 °F 93% 30.12 in - North 12.7 mph - N/A   Clear
7:00 AM 35 °F - 33 °F 90% 30.16 in - North 11.5 mph - -  
7:00 AM 35.6 °F 27.5 °F 33.8 °F 93% 30.12 in - North 11.5 mph - N/A   Clear
7:30 AM 39.2 °F 32.0 °F 35.6 °F 87% 30.15 in - North 11.5 mph - N/A   Clear
8:00 AM 39.2 °F 31.6 °F 37.4 °F 93% 30.15 in - North 12.7 mph - N/A   Clear
8:30 AM 41.0 °F 33.9 °F 37.4 °F 87% 30.15 in 6.2 mi North 12.7 mph - N/A   Scattered Clouds
9:00 AM 43 °F - 38 °F 75% 30.17 in 25 mi North 12.7 mph - -   Partly Cloudy
9:00 AM 42.8 °F 36.2 °F 37.4 °F 81% 30.15 in 6.2 mi North 12.7 mph - N/A   Scattered Clouds
9:30 AM 46.4 °F 41.9 °F 39.2 °F 76% 30.15 in 6.2 mi North 9.2 mph - N/A   Scattered Clouds
10:00 AM 49 °F - 39 °F 59% 30.17 in - NNE 9.2 mph - -  
10:00 AM 48.2 °F - 39.2 °F 71% 30.15 in 6.2 mi NNE 9.2 mph - N/A   Scattered Clouds
10:30 AM 50.0 °F - 39.2 °F 66% 30.15 in 6.2 mi North 9.2 mph - N/A   Scattered Clouds
11:00 AM 51.8 °F - 39.2 °F 62% 30.15 in 6.2 mi NNE 10.4 mph - N/A   Scattered Clouds
11:30 AM 53.6 °F - 41.0 °F 62% 30.15 in 6.2 mi NNE 10.4 mph - N/A   Scattered Clouds
12:00 PM 54 °F - 39 °F 47% 30.15 in 25 mi North 10.4 mph - -   Partly Cloudy
12:00 PM 55.4 °F - 39.2 °F 54% 30.12 in 6.2 mi North 10.4 mph - N/A   Partly Cloudy
12:30 PM 55.4 °F - 39.2 °F 54% 30.12 in 6.2 mi North 10.4 mph - N/A   Partly Cloudy
1:00 PM 56 °F - 39 °F 41% 30.13 in - North 12.7 mph - -  
1:00 PM 55.4 °F - 39.2 °F 54% 30.12 in 6.2 mi North 12.7 mph - N/A   Partly Cloudy
1:30 PM 55.4 °F - 39.2 °F 54% 30.12 in 6.2 mi North 11.5 mph - N/A   Scattered Clouds
2:00 PM 55.4 °F - 39.2 °F 54% 30.09 in 6.2 mi NNW 10.4 mph - N/A   Partly Cloudy
2:30 PM 55.4 °F - 37.4 °F 51% 30.09 in 6.2 mi North 11.5 mph - N/A   Partly Cloudy
3:00 PM 56 °F - 38 °F 40% 30.12 in 25 mi North 9.2 mph - -   Partly Cloudy
3:00 PM 55.4 °F - 39.2 °F 54% 30.09 in 6.2 mi North 9.2 mph - N/A   Partly Cloudy
3:30 PM 55.4 °F - 37.4 °F 51% 30.09 in 6.2 mi North 9.2 mph - N/A   Partly Cloudy
4:00 PM 55 °F - 37 °F 40% 30.12 in - North 8.1 mph - -  
4:00 PM 55.4 °F - 37.4 °F 51% 30.09 in 6.2 mi North 8.1 mph - N/A   Partly Cloudy
4:30 PM 53.6 °F - 37.4 °F 54% 30.12 in 6.2 mi North 5.8 mph - N/A   Partly Cloudy
5:00 PM 51.8 °F - 37.4 °F 58% 30.09 in - North 6.9 mph - N/A   Clear
5:30 PM 48.2 °F - 39.2 °F 71% 30.12 in - NNE 4.6 mph - N/A   Clear
6:00 PM 48 °F - 38 °F 60% 30.14 in 25 mi North 5.8 mph - -   Partly Cloudy
6:00 PM 48.2 °F - 39.2 °F 71% 30.12 in - North 5.8 mph - N/A   Clear
6:30 PM 46.4 °F 43.5 °F 39.2 °F 76% 30.12 in - NNE 5.8 mph - N/A   Clear
7:00 PM 45 °F - 38 °F 68% 30.16 in - NNE 6.9 mph - -  
7:00 PM 44.6 °F 40.7 °F 37.4 °F 76% 30.15 in - NNE 6.9 mph - N/A   Clear
7:30 PM 44.6 °F 40.2 °F 37.4 °F 76% 30.15 in - North 8.1 mph - N/A   Clear
8:00 PM 41.0 °F 37.1 °F 37.4 °F 87% 30.15 in - North 5.8 mph - N/A   Clear
8:30 PM 41.0 °F 38.0 °F 35.6 °F 81% 30.15 in - North 4.6 mph - N/A   Clear
9:00 PM 38 °F - 36 °F 88% 30.19 in 25 mi North 2.3 mph - -   Partly Cloudy
9:00 PM 37.4 °F - 35.6 °F 93% 30.18 in - North 2.3 mph - N/A   Clear
9:30 PM 39.2 °F 35.0 °F 35.6 °F 87% 30.18 in - North 5.8 mph - N/A   Clear
10:00 PM 41 °F - 35 °F 73% 30.20 in - North 8.1 mph - -  
10:00 PM 41.0 °F 35.8 °F 35.6 °F 81% 30.18 in - North 8.1 mph - N/A   Clear
10:30 PM 41.0 °F 35.8 °F 35.6 °F 81% 30.18 in - North 8.1 mph - N/A   Clear
11:00 PM 41.0 °F 34.7 °F 35.6 °F 81% 30.18 in - North 10.4 mph - N/A   Clear
11:30 PM 39.2 °F 32.5 °F 35.6 °F 87% 30.18 in - North 10.4 mph - N/A   Clear